Total_Precipitation_Accumulation
0.28 0.35 0.77 1.08 1.10 1.02 0.97 0.92 0.85 0.83 0.84 0.83 0.83 0.79 0.72 0.69 0.68 0.68 0.73 0.76 0.89 0.97 1.03 1.07 1.15 1.20 1.17 1.02 0.81 0.58 0.46 0.43 0.37 0.31 0.30 0.31 0.37 0.43 0.41 0.41 0.43 0.53 0.70
0.26 0.40 0.80 1.09 1.16 1.04 0.95 0.92 0.87 0.86 0.86 0.89 1.00 0.97 0.87 0.82 0.84 0.85 0.90 0.92 1.01 1.14 1.21 1.22 1.23 1.24 1.15 0.96 0.71 0.50 0.32 0.25 0.18 0.11 0.10 0.14 0.23 0.35 0.36 0.33 0.36 0.55 0.66
0.30 0.47 0.79 1.11 1.17 1.10 0.99 0.92 0.88 0.89 0.93 0.97 1.01 1.05 1.00 0.95 0.95 1.04 1.07 1.06 1.11 1.15 1.25 1.31 1.24 1.19 1.03 0.80 0.59 0.44 0.30 0.20 0.13 0.10 0.13 0.20 0.31 0.47 0.44 0.38 0.47 0.59 0.65
0.41 0.52 0.73 1.07 1.21 1.20 1.09 0.98 0.97 1.00 0.99 1.07 1.10 1.13 1.19 1.14 1.09 1.11 1.12 1.10 1.08 1.06 1.10 1.11 0.98 0.89 0.78 0.63 0.56 0.42 0.29 0.19 0.12 0.12 0.21 0.29 0.39 0.65 0.64 0.55 0.56 0.60 0.62
0.58 0.61 0.84 1.13 1.29 1.34 1.27 1.12 1.10 1.14 1.09 1.14 1.19 1.28 1.35 1.34 1.22 1.15 1.08 1.06 1.01 0.95 0.83 0.80 0.75 0.68 0.63 0.53 0.48 0.38 0.27 0.18 0.12 0.13 0.19 0.31 0.50 0.86 0.72 0.62 0.60 0.62 0.60
0.72 0.81 1.06 1.35 1.51 1.56 1.44 1.32 1.27 1.29 1.23 1.23 1.21 1.27 1.40 1.50 1.41 1.24 1.06 0.92 0.85 0.81 0.74 0.64 0.62 0.63 0.58 0.49 0.43 0.33 0.25 0.17 0.10 0.13 0.18 0.28 0.50 0.86 0.72 0.64 0.58 0.59 0.59
0.77 0.93 1.18 1.53 1.72 1.83 1.75 1.64 1.58 1.56 1.48 1.38 1.32 1.33 1.42 1.49 1.37 1.22 1.00 0.84 0.79 0.78 0.75 0.65 0.61 0.60 0.60 0.54 0.45 0.36 0.24 0.16 0.11 0.14 0.20 0.30 0.56 0.88 0.78 0.68 0.61 0.61 0.58
0.82 1.05 1.34 1.70 1.83 1.92 1.94 1.89 1.86 1.80 1.72 1.62 1.53 1.50 1.51 1.48 1.34 1.18 1.03 0.90 0.80 0.80 0.80 0.71 0.64 0.61 0.60 0.55 0.48 0.39 0.24 0.14 0.11 0.14 0.20 0.30 0.58 0.79 0.70 0.60 0.59 0.61 0.58
1.08 1.28 1.53 1.79 1.94 2.06 2.00 1.94 1.98 1.91 1.84 1.73 1.65 1.55 1.44 1.37 1.29 1.16 1.03 0.94 0.87 0.83 0.86 0.80 0.71 0.62 0.60 0.57 0.52 0.36 0.22 0.14 0.13 0.17 0.20 0.29 0.51 0.70 0.64 0.59 0.59 0.60 0.60
1.51 1.66 1.81 1.92 1.97 2.04 2.00 1.94 2.00 2.00 1.97 1.92 1.80 1.54 1.36 1.26 1.27 1.17 1.00 0.94 0.87 0.84 0.85 0.83 0.78 0.67 0.59 0.51 0.45 0.34 0.26 0.22 0.17 0.17 0.23 0.29 0.47 0.65 0.66 0.63 0.59 0.60 0.61
2.06 2.01 2.12 2.17 2.18 2.18 2.14 2.04 2.13 2.16 2.13 2.03 1.93 1.65 1.45 1.39 1.32 1.20 1.00 0.89 0.85 0.81 0.81 0.85 0.80 0.73 0.62 0.47 0.39 0.34 0.33 0.30 0.23 0.26 0.30 0.39 0.58 0.72 0.77 0.74 0.63 0.61 0.62
2.31 2.26 2.26 2.32 2.21 2.26 2.25 2.27 2.34 2.27 2.23 2.11 1.87 1.77 1.67 1.56 1.40 1.21 1.10 0.97 0.91 0.85 0.85 0.90 0.85 0.73 0.62 0.51 0.40 0.35 0.34 0.33 0.32 0.30 0.34 0.52 0.75 0.86 0.86 0.78 0.71 0.67 0.62
2.40 2.49 2.49 2.52 2.43 2.33 2.37 2.31 2.39 2.39 2.34 2.27 2.07 1.93 1.89 1.86 1.67 1.48 1.29 1.25 1.13 1.00 1.00 0.96 0.93 0.70 0.54 0.47 0.45 0.37 0.32 0.33 0.36 0.36 0.35 0.50 0.76 0.91 0.92 0.86 0.81 0.76 0.70
2.70 2.73 2.78 2.74 2.74 2.53 2.42 2.36 2.42 2.46 2.39 2.28 2.08 1.97 1.92 1.85 1.75 1.58 1.37 1.23 1.19 1.03 1.00 0.97 0.83 0.67 0.59 0.50 0.45 0.43 0.39 0.36 0.36 0.40 0.38 0.43 0.65 0.85 0.92 0.95 0.93 0.85 0.82
2.96 3.03 3.08 2.96 2.94 2.86 2.65 2.45 2.46 2.58 2.57 2.44 2.26 2.06 1.90 1.76 1.65 1.61 1.54 1.42 1.29 1.15 1.03 0.98 0.87 0.78 0.70 0.60 0.51 0.46 0.43 0.38 0.37 0.36 0.37 0.39 0.51 0.73 0.92 1.02 1.10 1.09 1.05
3.15 3.34 3.39 3.25 3.06 3.01 2.81 2.51 2.43 2.60 2.72 2.78 2.51 2.20 2.15 1.99 1.85 1.75 1.66 1.58 1.43 1.31 1.19 1.09 0.97 0.94 0.86 0.76 0.64 0.52 0.48 0.46 0.44 0.39 0.37 0.38 0.42 0.53 0.77 0.99 1.17 1.21 1.20
3.04 3.38 3.55 3.49 3.38 3.18 3.06 2.83 2.53 2.67 2.81 2.87 2.75 2.49 2.40 2.29 2.13 2.04 1.88 1.70 1.47 1.37 1.35 1.33 1.28 1.21 1.12 0.93 0.79 0.66 0.57 0.53 0.50 0.43 0.38 0.37 0.38 0.42 0.58 0.82 1.00 1.12 1.18
3.00 3.19 3.51 3.59 3.63 3.50 3.29 3.10 2.76 2.67 2.81 2.82 2.71 2.60 2.50 2.40 2.30 2.21 2.04 1.85 1.70 1.60 1.54 1.49 1.46 1.40 1.28 1.09 0.91 0.83 0.72 0.62 0.55 0.52 0.46 0.41 0.40 0.38 0.46 0.62 0.74 0.86 1.02
2.97 3.11 3.39 3.58 3.69 3.82 3.73 3.58 3.22 2.88 2.89 2.91 2.76 2.58 2.50 2.44 2.37 2.27 2.12 1.97 1.89 1.82 1.70 1.59 1.55 1.49 1.42 1.28 1.11 0.99 0.92 0.83 0.74 0.70 0.63 0.57 0.52 0.50 0.48 0.55 0.59 0.64 0.78
3.21 3.34 3.43 3.65 3.91 4.16 4.31 4.16 3.91 3.41 3.07 2.99 2.89 2.70 2.51 2.44 2.39 2.32 2.20 2.09 2.00 1.97 1.89 1.77 1.63 1.55 1.49 1.46 1.39 1.25 1.13 1.05 0.94 0.85 0.76 0.69 0.66 0.66 0.64 0.63 0.58 0.54 0.61
3.30 3.51 3.61 3.65 3.91 4.27 4.27 4.06 3.83 3.52 3.25 3.02 2.93 2.89 2.70 2.55 2.43 2.36 2.22 2.21 2.12 2.01 1.94 1.91 1.88 1.85 1.73 1.69 1.75 1.64 1.40 1.26 1.16 1.01 0.91 0.81 0.75 0.75 0.75 0.75 0.69 0.60 0.59
3.06 3.44 3.51 3.70 3.95 4.22 4.16 4.06 3.97 3.88 3.67 3.39 3.24 3.00 2.84 2.69 2.51 2.43 2.34 2.20 2.16 2.10 2.00 1.96 1.94 2.02 2.09 2.06 2.04 2.03 1.89 1.69 1.36 1.11 1.03 0.94 0.86 0.87 0.89 0.88 0.84 0.77 0.71
2.53 3.03 3.26 3.40 3.75 4.01 4.20 4.55 4.57 4.38 4.04 3.57 3.27 3.11 2.95 2.93 2.78 2.55 2.51 2.39 2.22 2.14 2.06 1.97 1.85 1.81 1.93 2.08 2.11 2.21 2.07 1.79 1.49 1.28 1.11 1.02 0.95 0.90 0.88 0.90 0.89 0.87 0.83
2.15 2.59 3.02 3.28 3.54 3.75 3.91 4.16 4.31 4.16 3.77 3.38 3.15 3.14 3.18 3.12 3.09 2.93 2.74 2.60 2.46 2.29 2.14 2.09 2.06 1.93 1.88 1.93 1.99 1.95 1.87 1.66 1.59 1.51 1.29 1.16 1.06 1.00 0.94 0.90 0.85 0.85 0.92
1.89 2.34 2.75 3.06 3.36 3.52 3.66 3.77 3.96 4.03 3.90 3.72 3.47 3.36 3.36 3.28 3.17 3.05 2.95 2.78 2.60 2.48 2.36 2.27 2.18 2.16 2.10 2.00 1.96 1.89 1.86 1.66 1.46 1.47 1.37 1.23 1.20 1.12 1.06 0.99 0.91 0.89 0.93
1.73 2.01 2.42 2.78 3.17 3.40 3.52 3.73 3.80 3.72 3.76 3.75 3.47 3.42 3.41 3.46 3.36 3.12 2.93 2.83 2.69 2.59 2.49 2.43 2.38 2.32 2.24 2.12 2.05 1.99 1.98 1.92 1.66 1.55 1.45 1.27 1.26 1.19 1.15 1.13 1.08 1.02 1.01